Regional Weather Roundup
Issued by NWS

Home | Current Version | Previous Version | Graphics & Text | Print | Product List | Glossary On
Versions: 1 2 3 4 5 6 7 8 9 10 11 12 13 14 15 16 17 18 19 20 21 22 23 24 25 26 27 28 29 30 31 32 33 34 35 36 37 38 39 40 41 42 43 44 45 46 47 48 49 50
000
ASUS43 KOAX 310402
RWRNE

WEATHER ROUNDUP FOR NEBRASKA
NATIONAL WEATHER SERVICE OMAHA NE
1000 PM CST FRI JAN 30 2015

NOTES: SATELLITE DATA IS BEING USED TO AUGMENT CLOUD COVER ABOVE
       12000 FEET.
       "FAIR" INDICATES FEW OR NO CLOUDS BELOW 12,000 FEET WITH NO
       SIGNIFICANT WEATHER AND/OR OBSTRUCTIONS TO VISIBILITY.

  * THESE STATIONS DO NOT REPORT WEATHER SUCH AS RAIN...SNOW OR FOG.

NEZ001>004-019>022-054>056-310500-
NEBRASKA PANHANDLE

CITY           SKY/WX    TMP DP  RH WIND       PRES   REMARKS
SCOTTSBLUFF    CLOUDY    35  28  75 N7        30.08F WCI  29
ALLIANCE       CLOUDY    32  27  81 N5        30.07F WCI  27
CHADRON        CLOUDY    29  24  82 W5        30.11F WCI  24
SIDNEY         CLOUDY    36  27  69 N9        30.06F WCI  29
$$

NEZ057>060-069>072-079>082-310500-
SOUTHWEST NEBRASKA

CITY           SKY/WX    TMP DP  RH WIND       PRES   REMARKS
NORTH PLATTE   CLOUDY    39  31  72 SE9       30.13F WCI  33
IMPERIAL       CLOUDY    38  31  76 S10       30.11S WCI  31
MCCOOK         CLOUDY    37  34  89 S6        30.17F WCI  32
$$

NEZ005>010-023>029-035>040-094-310500-
NORTH CENTRAL NEBRASKA

CITY           SKY/WX    TMP DP  RH WIND       PRES   REMARKS
VALENTINE      CLOUDY    33  26  75 CALM      30.11F
BROKEN BOW     CLOUDY    40  30  67 S16G24    30.16S WCI  31
ORD            CLOUDY    39  26  59 S7        30.17S WCI  34
$$

NEZ041-046>049-061>064-073>077-083>087-310500-
SOUTH CENTRAL NEBRASKA

CITY           SKY/WX    TMP DP  RH WIND       PRES   REMARKS
GRAND ISLAND   CLOUDY    41  29  62 SW15      30.22F
AURORA         CLOUDY    40  27  60 S8        30.22F WCI  34
HASTINGS       CLOUDY    38  32  79 SW15G21   30.23R WCI  29
KEARNEY *      CLOUDY    37  30  75 SW15G22   30.22S WCI  28
$$

NEZ011>018-030>034-042>045-310500-
NORTHEAST NEBRASKA

CITY           SKY/WX    TMP DP  RH WIND       PRES   REMARKS
NORFOLK        CLOUDY    36  27  69 S9        30.18F WCI  29
ALBION         CLOUDY    37  26  66 S6        30.19F WCI  32
BLAIR          CLOUDY    36  26  67 S14       30.24F WCI  27
COLUMBUS *     CLOUDY    37  25  60 S12       30.23F WCI  30
FREMONT        CLOUDY    37  27  67 S10       30.25F WCI  30
TEKAMAH        CLOUDY    33  25  72 S9        30.24F WCI  25
$$

NEZ050>053-065>068-078-088>093-310500-
SOUTHEAST NEBRASKA

CITY           SKY/WX    TMP DP  RH WIND       PRES   REMARKS
LINCOLN        CLOUDY    34  26  72 S8        30.28F WCI  27
OMAHA EPPLEY   CLOUDY    33  25  72 S12       30.28F WCI  24
FALLS CITY     CLOUDY    32  21  64 S7        30.33S WCI  26
$$

NEZ044-045-051>053-067-310500-
OMAHA AREA

CITY           SKY/WX    TMP DP  RH WIND       PRES   REMARKS
OMAHA EPPLEY   CLOUDY    33  25  72 S12       30.28F WCI  24
BLAIR          CLOUDY    36  26  67 S14       30.24F WCI  27
FREMONT        CLOUDY    37  27  67 S10       30.25F WCI  30
OFFUTT AFB     CLOUDY    31  24  77 SE6       30.28F WCI  25
$$



USA.gov is the U.S. government's official web portal to all federal, state and local government web resources and services.